Location: Bangkok
(13.7500°N, 100.5170°E)
Time: 10:24:41
(UTC+07:00)

Hubble Space Telescope - Visible Passes

Search period start: 09 February 2016 00:00
Search period end: 19 February 2016 00:00
Orbit: 540 x 544 km, 28.5° (Epoch: 07 February)

Date Brightness Start Highest point End Pass type
(mag) Time Alt. Az. Time Alt. Az. Time Alt. Az.
09 Feb 3.9 04:23:58 10° SE 04:23:58 10° SE 04:24:00 10° SE visible
09 Feb 1.8 19:37:55 10° W 19:41:46 36° NNW 19:42:52 30° NNE visible
10 Feb 2.3 19:28:49 10° W 19:32:25 28° NNW 19:34:10 21° NNE visible
11 Feb 2.6 19:19:48 10° WNW 19:23:07 23° NNW 19:25:26 15° NNE visible
12 Feb 2.8 19:10:51 10° WNW 19:13:49 19° NNW 19:16:41 10° NNE visible
13 Feb 3.0 19:01:58 10° NW 19:04:32 16° NNW 19:07:07 10° NNE visible
14 Feb 3.1 18:53:09 10° NW 18:55:17 14° N 18:57:25 10° NNE visible
15 Feb 3.2 18:44:23 10° NNW 18:46:02 12° N 18:47:42 10° NNE visible
17 Feb 3.5 20:07:56 10° NNW 20:08:03 10° NNW 20:08:03 10° NNW visible
18 Feb 3.2 19:58:13 10° NNW 19:59:16 13° N 19:59:16 13° N visible
